Regional Weather Roundup
Issued by NWS Goodland, KS

Home | Current Version | Previous Version | Text Only | Print | Product List | Glossary Off
Versions: 1 2 3 4 5 6 7 8 9 10 11 12 13 14 15 16 17 18 19 20 21 22 23 24 25 26 27 28 29 30 31 32 33 34 35 36 37 38 39 40 41 42 43 44 45 46 47 48 49 50

000
ASUS43 KGLD 191008
RWRGLD

GOODLAND FORECAST AREA HOURLY WEATHER ROUNDUP
NATIONAL WEATHER SERVICE GOODLAND KS
400 AM MDT SUN APR 19 2015

...OFFICIAL OBSERVATIONS...

CITY           SKY/WX    TMP DP  RH WIND       PRES   REMARKS
GOODLAND KS    RAIN      43  42  97 W6        29.89R FOG
HILL CITY KS   LGT RAIN  51  48  89 N10       29.81R
IMPERIAL NEB   LGT RAIN  46  44  93 N22G28    29.90R
MCCOOK NEB     CLOUDY    50  45  83 NW23      29.83R
AKRON CO       CLOUDY    40  38  93 N28G41    29.98R
BURLINGTON CO  RAIN      42  40  92 NW8       29.91R FOG
LIMON CO       LGT RAIN  38  36  92 N30       29.98R
$$

...UNOFFICIAL OBSERVATIONS...

CITY           SKY/WX    TMP DP  RH WIND       PRES   REMARKS
COLBY KS       LGT RAIN  48  48 100 N9        29.86R
GOVE KS          N/A     48  32  54 MISG        N/A
LENORA KS        N/A     51  32  48 MISG        N/A
NORTON KS      CLOUDY    50  45  81 CALM      29.80R
SHARON SPRINGS   N/A     46  44  94 MISG        N/A
TRIBUNE KS     MOCLDY    45  45 100 N13       29.83R
KIT CARSON CO    N/A     41  38  87 MISG        N/A
YUMA CO          N/A     43  42  95 N26         N/A
$$



USA.gov is the U.S. government's official web portal to all federal, state and local government web resources and services.